When you browse on this site, cookies collect data to enhance your experience and personalize the content and advertising you see.
Visit our Privacy Policy to learn more. By continuing to use the site, you agree to this use of cookies and data.
  • In Schweiz
  • Länderverzeichnis
  • Für 7 Tage
  • Wassertemperatur
  • Satellitenkarten
  • Wetterkarte
  • Widgets
  • user-avatar
    Anmelden

    Stündliche Wetter Ludwinow

    Heute, 21 Februar, Donnerstag

    Zeit Temperatur Niederschläge Wind Luftdruck Luftfeuchtigkeit
    00:00 +1°C° 0 mm 3 m/S 747 mmHg 90%
    01:00 +2°C° 0 mm 2 m/S 747 mmHg 92%
    02:00 +2°C° 0 mm 2 m/S 747 mmHg 92%
    03:00 +1°C° 0 mm 3 m/S 747 mmHg 92%
    04:00 +2°C° 0 mm 3 m/S 747 mmHg 92%
    05:00 +2°C° 0 mm 3 m/S 747 mmHg 92%
    06:00 +2°C° 0 mm 3 m/S 747 mmHg 93%
    07:00 +1°C° 0 mm 4 m/S 747 mmHg 93%
    08:00 +3°C° 0 mm 4 m/S 747 mmHg 89%
    09:00 +3°C° 0 mm 5 m/S 747 mmHg 84%
    10:00 +5°C° 0 mm 5 m/S 747 mmHg 80%
    11:00 +5°C° 0.2 mm 5 m/S 747 mmHg 79%
    12:00 +5°C° 0.2 mm 5 m/S 747 mmHg 77%
    13:00 +4°C° 0.2 mm 6 m/S 747 mmHg 76%
    14:00 +4°C° 0.5 mm 6 m/S 746 mmHg 78%
    15:00 +4°C° 0.5 mm 6 m/S 746 mmHg 81%
    16:00 +4°C° 0.5 mm 6 m/S 746 mmHg 83%
    17:00 +3°C° 0.3 mm 6 m/S 745 mmHg 84%
    18:00 +3°C° 0.3 mm 6 m/S 745 mmHg 85%
    19:00 +3°C° 0.3 mm 6 m/S 745 mmHg 86%
    20:00 +3°C° 0.6 mm 6 m/S 745 mmHg 88%
    21:00 +3°C° 0.6 mm 5 m/S 745 mmHg 90%
    22:00 +3°C° 0.6 mm 5 m/S 744 mmHg 91%
    23:00 +3°C° 1.1 mm 5 m/S 745 mmHg 92%

    Morgen, 22 Februar, Freitag

    Zeit Temperatur Niederschläge Wind Luftdruck Luftfeuchtigkeit
    00:00 +5°C° 1.1 mm 5 m/S 745 mmHg 93%
    01:00 +5°C° 1.1 mm 5 m/S 745 mmHg 94%
    02:00 +2°C° 0.4 mm 6 m/S 745 mmHg 91%
    03:00 -1°C° 0.4 mm 6 m/S 746 mmHg 88%
    04:00 -3°C° 0.4 mm 7 m/S 746 mmHg 86%
    05:00 -3°C° 0 mm 7 m/S 748 mmHg 81%
    06:00 -4°C° 0 mm 7 m/S 749 mmHg 77%
    07:00 -6°C° 0 mm 7 m/S 751 mmHg 73%
    08:00 -6°C° 0 mm 7 m/S 752 mmHg 66%
    09:00 -5°C° 0 mm 6 m/S 753 mmHg 59%
    10:00 -5°C° 0 mm 6 m/S 755 mmHg 52%
    11:00 -4°C° 0 mm 6 m/S 755 mmHg 49%
    12:00 -4°C° 0 mm 5 m/S 756 mmHg 46%
    13:00 -4°C° 0 mm 5 m/S 757 mmHg 43%
    14:00 -4°C° 0 mm 5 m/S 757 mmHg 44%
    15:00 -5°C° 0 mm 5 m/S 757 mmHg 45%
    16:00 -5°C° 0 mm 5 m/S 758 mmHg 46%
    17:00 -5°C° 0 mm 5 m/S 758 mmHg 47%
    18:00 -5°C° 0 mm 4 m/S 759 mmHg 48%
    19:00 -5°C° 0 mm 4 m/S 759 mmHg 49%
    20:00 -5°C° 0 mm 4 m/S 760 mmHg 47%
    21:00 -5°C° 0 mm 4 m/S 760 mmHg 45%
    22:00 -5°C° 0 mm 4 m/S 761 mmHg 43%
    23:00 -5°C° 0 mm 4 m/S 761 mmHg 42%

    übermorgen, 23 Februar, Samstag

    Zeit Temperatur Niederschläge Wind Luftdruck Luftfeuchtigkeit
    00:00 -5°C° 0 mm 3 m/S 761 mmHg 40%
    01:00 -5°C° 0 mm 3 m/S 761 mmHg 39%
    02:00 -6°C° 0 mm 3 m/S 761 mmHg 39%
    03:00 -6°C° 0 mm 3 m/S 761 mmHg 40%
    04:00 -6°C° 0 mm 3 m/S 761 mmHg 41%
    05:00 -5°C° 0 mm 2 m/S 761 mmHg 42%
    06:00 -5°C° 0 mm 2 m/S 762 mmHg 43%
    07:00 -5°C° 0 mm 2 m/S 762 mmHg 44%
    08:00 -5°C° 0 mm 2 m/S 762 mmHg 41%
    09:00 -5°C° 0 mm 3 m/S 762 mmHg 38%
    10:00 -4°C° 0 mm 3 m/S 763 mmHg 35%
    11:00 -4°C° 0 mm 3 m/S 762 mmHg 32%
    12:00 -2°C° 0 mm 2 m/S 762 mmHg 30%
    13:00 -1°C° 0 mm 2 m/S 762 mmHg 27%
    14:00 -1°C° 0 mm 2 m/S 761 mmHg 28%
    15:00 -1°C° 0 mm 2 m/S 761 mmHg 29%
    16:00 -1°C° 0 mm 2 m/S 761 mmHg 30%
    17:00 -2°C° 0 mm 2 m/S 761 mmHg 33%
    18:00 -3°C° 0 mm 2 m/S 761 mmHg 37%
    19:00 -2°C° 0 mm 1 m/S 761 mmHg 40%
    20:00 -1°C° 0 mm 1 m/S 761 mmHg 39%
    21:00 -2°C° 0 mm 0 m/S 761 mmHg 38%
    22:00 -2°C° 0 mm 0 m/S 761 mmHg 38%
    23:00 -2°C° 0 mm 0 m/S 761 mmHg 37%

    24 Februar, Sonntag

    Zeit Temperatur Niederschläge Wind Luftdruck Luftfeuchtigkeit
    00:00 -1°C° 0 mm 1 m/S 760 mmHg 37%
    01:00 -1°C° 0 mm 1 m/S 760 mmHg 37%
    02:00 0°C° 0 mm 1 m/S 760 mmHg 36%
    03:00 -2°C° 0 mm 2 m/S 759 mmHg 36%
    04:00 -2°C° 0 mm 2 m/S 759 mmHg 35%
    05:00 -2°C° 0 mm 2 m/S 759 mmHg 36%
    06:00 -3°C° 0 mm 2 m/S 759 mmHg 37%
    07:00 -3°C° 0 mm 2 m/S 758 mmHg 37%
    08:00 -2°C° 0 mm 2 m/S 758 mmHg 34%
    09:00 -1°C° 0 mm 3 m/S 758 mmHg 32%
    10:00 0°C° 0 mm 3 m/S 758 mmHg 29%
    11:00 +1°C° 0 mm 3 m/S 758 mmHg 30%
    12:00 +1°C° 0 mm 3 m/S 758 mmHg 31%
    13:00 +2°C° 0 mm 3 m/S 757 mmHg 32%
    14:00 +2°C° 0 mm 3 m/S 757 mmHg 36%
    15:00 +1°C° 0 mm 3 m/S 757 mmHg 41%
    16:00 +2°C° 0 mm 2 m/S 756 mmHg 45%
    17:00 +1°C° 0 mm 2 m/S 756 mmHg 50%
    18:00 +1°C° 0 mm 2 m/S 756 mmHg 55%
    19:00 +1°C° 0 mm 1 m/S 756 mmHg 59%
    20:00 +1°C° 0 mm 1 m/S 756 mmHg 63%
    21:00 +1°C° 0 mm 1 m/S 756 mmHg 67%
    22:00 0°C° 0 mm 1 m/S 756 mmHg 71%
    23:00 0°C° 0 mm 1 m/S 756 mmHg 75%

    25 Februar, Montag

    Zeit Temperatur Niederschläge Wind Luftdruck Luftfeuchtigkeit
    00:00 0°C° 0 mm 1 m/S 756 mmHg 79%
    01:00 +1°C° 0 mm 1 m/S 756 mmHg 83%
    02:00 0°C° 0 mm 1 m/S 756 mmHg 85%
    03:00 0°C° 0 mm 1 m/S 756 mmHg 88%
    04:00 0°C° 0 mm 1 m/S 756 mmHg 91%
    05:00 0°C° 0 mm 1 m/S 756 mmHg 92%
    06:00 +1°C° 0 mm 1 m/S 756 mmHg 93%
    07:00 +1°C° 0 mm 1 m/S 756 mmHg 95%
    08:00 +2°C° 0 mm 1 m/S 757 mmHg 91%
    09:00 +3°C° 0 mm 1 m/S 757 mmHg 88%
    10:00 +4°C° 0 mm 1 m/S 758 mmHg 85%
    11:00 +4°C° 0 mm 1 m/S 758 mmHg 83%
    12:00 +5°C° 0 mm 1 m/S 758 mmHg 82%
    13:00 +5°C° 0 mm 1 m/S 758 mmHg 80%
    14:00 +5°C° 0 mm 1 m/S 757 mmHg 82%
    15:00 +4°C° 0 mm 2 m/S 757 mmHg 83%
    16:00 +4°C° 0 mm 2 m/S 757 mmHg 85%
    17:00 +3°C° 0 mm 2 m/S 757 mmHg 87%
    18:00 +2°C° 0 mm 2 m/S 757 mmHg 90%
    19:00 +1°C° 0 mm 2 m/S 757 mmHg 93%
    20:00 +2°C° 0 mm 1 m/S 757 mmHg 93%
    21:00 +1°C° 0 mm 1 m/S 757 mmHg 92%
    22:00 +1°C° 0 mm 1 m/S 757 mmHg 92%
    23:00 +1°C° 0 mm 1 m/S 757 mmHg 91%

    26 Februar, Dienstag

    Zeit Temperatur Niederschläge Wind Luftdruck Luftfeuchtigkeit
    00:00 +1°C° 0 mm 1 m/S 757 mmHg 91%
    01:00 -1°C° 0 mm 2 m/S 757 mmHg 90%
    02:00 -1°C° 0 mm 2 m/S 756 mmHg 90%
    03:00 -1°C° 0 mm 2 m/S 755 mmHg 90%
    04:00 -1°C° 0 mm 2 m/S 755 mmHg 89%
    05:00 -1°C° 0 mm 3 m/S 754 mmHg 89%
    06:00 -1°C° 0 mm 3 m/S 754 mmHg 89%
    07:00 -1°C° 0 mm 3 m/S 754 mmHg 89%
    08:00 0°C° 0 mm 4 m/S 753 mmHg 85%
    09:00 +1°C° 0 mm 4 m/S 753 mmHg 80%
    10:00 +3°C° 0 mm 5 m/S 752 mmHg 76%
    11:00 +5°C° 0 mm 5 m/S 752 mmHg 74%
    12:00 +5°C° 0 mm 6 m/S 751 mmHg 71%
    13:00 +7°C° 0 mm 6 m/S 750 mmHg 69%
    14:00 +7°C° 0 mm 6 m/S 750 mmHg 69%
    15:00 +6°C° 0 mm 5 m/S 750 mmHg 69%
    16:00 +6°C° 0 mm 5 m/S 749 mmHg 69%
    17:00 +6°C° 0 mm 5 m/S 749 mmHg 73%
    18:00 +5°C° 0 mm 4 m/S 750 mmHg 77%
    19:00 +4°C° 0 mm 4 m/S 750 mmHg 81%
    20:00 +3°C° 0 mm 4 m/S 750 mmHg 84%
    21:00 +3°C° 0 mm 4 m/S 750 mmHg 87%
    22:00 +1°C° 0 mm 4 m/S 750 mmHg 90%
    23:00 +1°C° 0 mm 4 m/S 750 mmHg 91%
    Mehr zeigen